Location: Oberkirch
(48.5323°N, 8.0787°E)
Time: 16:35:52
(UTC+00:00)

SL-24 R/B - RUBIN 2 - Pass Details

Date: 16 February 2026
Orbit: 603 x 984 km, 64.6° (Epoch: 8 March)

Event Time Altitude Azimuth Distance (km) Brightness Sun altitude
Exits shadow 05:43:48 - 317° (NW) 2,457 6.2 -8.9°
Reaches altitude 10° 05:46:48 10° 350° (N) 1,988 6.0 -8.4°
Maximum altitude 05:47:17 10° 356° (N) 1,975 6.0 -8.3°
Drops below altitude 10° 05:47:45 10° 2° (N) 1,980 6.1 -8.2°
Sets 05:52:27 0° 48° (NE) 2,862 7.6 -7.5°
